User: anonymous   Login
Location: ActonStarParty
(42.4766°N, 71.4538°W)
Time: 00:55:24
(UTC-04:00)
Language:

Cosmos 1300 - Orbit

View from above orbital plane
View from above orbital plane
View from above satellite
View from above satellite

Ground track
Ground track

The orbit data is extracted from the following two-line orbital elements,

1 12785U 81082A   16273.18463640  .00001659  00000-0  84108-4 0  9999
2 12785  82.5054 331.2169 0002769  83.0933 328.7583 15.16296763912299
Epoch (UTC): 29 September 2016 04:25:52
Eccentricity: 0.0002769
inclination: 82.5054°
perigee height: 515 km
apogee height: 519 km
right ascension of ascending node: 331.2169°
argument of perigee: 83.0933°
revolutions per day: 15.16296763
mean anomaly at epoch: 328.7583°
orbit number at epoch: 91229

The dashed part of the orbit path shows where the satellite is in the earth's shadow,  

DLR